Guam Agana, GU

4:04 PM ChST on November 18, 2019 (GMT +1000)
Guam International

Weather History for PGUM - October, 2019

Change the Weather History Date:

Monday, October 21, 2019

  Actual Average Record
Temperature  
Mean Temperature 81 °F -  
Max Temperature 87 °F 84 °F 90 °F (2012)
Min Temperature 75 °F 75 °F 73 °F (2011)
Cooling Degree Days 16    
Growing Degree Days 31 (Base 50)    
Moisture  
Dew Point 73 °F    
Average Humidity 79    
Maximum Humidity 94    
Minimum Humidity 53    
Precipitation  
Precipitation 0.16 in - - ()
Sea Level Pressure  
Sea Level Pressure 29.80 in    
Wind  
Wind Speed 9 mph ()    
Max Wind Speed 20 mph    
Max Gust Speed 31 mph    
Visibility 9.0 miles    
Events Rain    
Averages and records for this station are not official NWS values.
T = Trace of Precipitation, MM = Missing Value Source: Averaged Metar Reports

Daily Weather History Graph

Daily Weather History Graph

Search for Another Location

Airport or City:

Astronomy

Oct. 21, 2019 Rise Set
Actual Time 6:12 AM ChST 5:58 PM ChST
Civil Twilight 5:50 AM ChST 6:20 PM ChST
Nautical Twilight 5:25 AM ChST 6:45 PM ChST
Astronomical Twilight 5:00 AM ChST 7:10 PM ChST
Moon No Moon Rise 12:21 PM ChST (10/21)
Length of Visible Light 12h 29m
Length of Day
11h 46m
Waning Gibbous, 55% of the Moon is Illuminated
Oct 21
Waning Gibbous
Oct 21
Last Quarter
Oct 28
New
Nov 4
First Quarter
Nov 12
Full

Hourly Weather History & Observations

Time (ChST) Temp. Heat Index Dew Point Humidity Pressure Visibility Wind Dir Wind Speed Gust Speed Precip Events Conditions
12:54 AM 78.1 °F - 73.9 °F 87% 29.82 in 10.0 mi NNE 5.8 mph - N/A   Clear
1:54 AM 78.1 °F - 73.9 °F 87% 29.80 in 10.0 mi North 6.9 mph - N/A   Clear
2:54 AM 79.0 °F - 75.9 °F 90% 29.79 in 10.0 mi NNE 6.9 mph - N/A   Clear
3:54 AM 78.1 °F - 75.0 °F 90% 29.78 in 10.0 mi NNE 6.9 mph - N/A   Clear
4:54 AM 79.0 °F - 75.0 °F 88% 29.77 in 10.0 mi North 8.1 mph - N/A   Clear
5:54 AM 79.0 °F - 75.9 °F 90% 29.78 in 10.0 mi NNE 9.2 mph - N/A   Partly Cloudy
6:54 AM 80.1 °F 85.4 °F 75.9 °F 87% 29.81 in 10.0 mi NNE 9.2 mph - N/A   Clear
7:54 AM 82.9 °F 90.8 °F 75.9 °F 79% 29.82 in 10.0 mi North 8.1 mph - N/A   Clear
8:54 AM 86.0 °F 95.1 °F 75.0 °F 70% 29.84 in 10.0 mi NE 10.4 mph - N/A   Partly Cloudy
9:46 AM 79.0 °F - 73.9 °F 84% 29.87 in 4.0 mi East 18.4 mph 31.1 mph 0.00 in Rain Light Rain
9:51 AM 77.0 °F - 73.4 °F 89% 29.87 in 2.0 mi East 18.4 mph 31.1 mph 0.00 in Rain Light Rain
9:54 AM 77.0 °F - 73.0 °F 88% 29.86 in 1.8 mi East 19.6 mph - 0.00 in Rain Heavy Rain
10:05 AM 75.9 °F - 73.9 °F 94% 29.87 in 4.0 mi East 13.8 mph 24.2 mph 0.15 in Rain Light Rain
10:15 AM 78.1 °F - 75.0 °F 90% 29.87 in 9.0 mi East 11.5 mph 19.6 mph 0.16 in   Mostly Cloudy
10:54 AM 81.0 °F 86.7 °F 75.0 °F 82% 29.83 in 10.0 mi East 15.0 mph - 0.16 in   Overcast
11:54 AM 86.0 °F 93.0 °F 73.0 °F 65% 29.80 in 10.0 mi NE 13.8 mph - N/A   Scattered Clouds
12:54 PM 87.1 °F 90.6 °F 68.0 °F 53% 29.78 in 10.0 mi NNE 8.1 mph - N/A   Overcast
1:54 PM 87.1 °F 94.5 °F 73.0 °F 63% 29.76 in 10.0 mi NNW 11.5 mph - N/A   Partly Cloudy
2:54 PM 84.9 °F 90.7 °F 72.0 °F 65% 29.75 in 10.0 mi North 8.1 mph - N/A   Scattered Clouds
3:54 PM 84.0 °F 90.2 °F 73.0 °F 69% 29.74 in 10.0 mi NNW 11.5 mph - N/A   Clear
4:54 PM 84.0 °F 89.6 °F 72.0 °F 67% 29.76 in 10.0 mi North 12.7 mph - N/A   Clear
5:54 PM 81.0 °F 85.8 °F 73.0 °F 77% 29.76 in 10.0 mi North 11.5 mph - N/A   Mostly Cloudy
6:09 PM 81.0 °F 86.2 °F 73.9 °F 79% 29.78 in 10.0 mi North 13.8 mph - N/A   Scattered Clouds
6:54 PM 80.1 °F 83.6 °F 71.1 °F 74% 29.76 in 10.0 mi North 11.5 mph - N/A   Clear
7:54 PM 80.1 °F 83.2 °F 70.0 °F 71% 29.79 in 10.0 mi North 12.7 mph - N/A   Clear
8:54 PM 80.1 °F 83.6 °F 71.1 °F 74% 29.79 in 10.0 mi North 9.2 mph - N/A   Clear
9:54 PM 80.1 °F 83.8 °F 72.0 °F 76% 29.78 in 10.0 mi NNW 8.1 mph - N/A   Clear
10:54 PM 80.1 °F 84.2 °F 73.0 °F 79% 29.77 in 10.0 mi NW 8.1 mph - N/A   Partly Cloudy
11:43 PM 79.0 °F - 75.0 °F 88% 29.78 in 10.0 mi North 9.2 mph - N/A   Partly Cloudy
11:54 PM 79.0 °F - 73.9 °F 84% 29.76 in 10.0 mi North 8.1 mph - N/A   Clear